[[{"header":{"parameterUnit":"m.s-1","parameterCategory":1,"la1":30.2991,"la2":30.254,"lo1":-89.0895,"lo2":-89.0444,"dy":0.0017,"dx":0.0017,"nx":28,"ny":28,"refTime":"2025-02-04T03:00:00:Z","depth":0,"parameterNumber":2,"parameterNumberName":"U-component_of_WINDS"},"data":[0,0,0,0,0,0,0,0,0,0,0,0,0,0,0,0,0,0,0,0,0,0,0,0,0,0,0,0,0,0,0,0,0,0,0,0,0,0,0,0,0,0,0,0,0,0,0,0,0,0,0,0,0,0,0,0,0,0,-0.3821,-0.382,0,-0.3775,-0.3774,-0.3774,-0.3774,-0.3775,-0.3776,-0.3776,-0.3727,-0.3725,-0.3724,0,0,0,0,0,0,0,0,0,0,0,0,0,-0.3907,-0.3905,-0.3821,-0.382,-0.382,-0.3775,-0.3774,-0.3774,-0.3774,-0.3775,-0.3776,-0.3776,-0.3728,-0.3726,-0.3723,0,0,0,0,0,0,0,0,0,0,0,0,0,-0.3866,-0.3905,-0.3821,-0.3815,-0.3814,-0.3775,-0.3774,-0.3773,-0.3774,-0.3775,-0.3776,-0.3777,-0.3729,-0.3726,-0.3723,-0.3687,0,0,-0.3715,-0.3713,0,0,0,0,0,0,0,0,-0.3868,-0.3863,-0.3816,-0.3815,-0.3814,-0.3781,-0.3787,-0.3744,-0.3774,-0.3789,-0.3776,-0.3777,-0.3744,-0.374,-0.373,-0.3685,-0.3683,-0.3714,-0.3713,-0.3711,-0.3711,0,0,0,0,0,0,0,-0.3871,-0.3865,-0.3803,-0.3815,-0.3814,-0.3813,-0.3809,-0.3779,-0.3762,-0.3788,-0.3788,-0.3782,-0.3744,-0.3732,-0.3728,-0.3682,-0.3714,-0.3712,-0.371,-0.3709,-0.3604,-0.3603,0,0,0,0,0,0,-0.3876,-0.3867,-0.3804,-0.3801,-0.3844,-0.3811,-0.3806,-0.3791,-0.3762,-0.3759,-0.3782,-0.3783,-0.3737,-0.3732,-0.3727,-0.3682,-0.3711,-0.3709,-0.3707,-0.3605,-0.3604,-0.3603,0,0,0,0,0,0,-0.3877,-0.387,-0.3806,-0.3834,-0.3826,-0.3809,-0.3792,-0.3789,-0.3778,-0.3758,-0.3755,-0.3773,-0.3737,-0.3731,-0.3697,-0.368,-0.3707,-0.3705,-0.3606,-0.3605,-0.3603,-0.3592,0,0,0,0,0,0,-0.388,-0.3871,-0.3857,-0.3834,-0.3824,-0.3777,-0.3791,-0.3788,-0.3773,-0.3774,-0.3749,-0.3745,-0.3737,-0.3701,-0.3694,-0.3677,-0.3703,-0.3608,-0.3606,-0.3604,-0.3594,-0.359,-0.3587,0,0,0,0,0,-0.3883,-0.3856,-0.3857,-0.3849,-0.3808,-0.3777,-0.3771,-0.3763,-0.3772,-0.3758,-0.3745,-0.3746,-0.3683,-0.3698,-0.369,-0.3671,-0.3609,-0.3606,-0.3604,-0.3595,-0.3591,-0.3587,0,0,0,0,0,0,-0.3878,-0.3853,-0.3853,-0.3818,-0.3799,-0.3777,-0.3759,-0.3759,-0.3737,-0.3738,-0.3728,-0.3723,-0.3689,-0.3677,-0.3693,-0.3634,-0.3647,-0.3643,-0.3643,-0.3639,-0.3636,-0.3639,-0.37,0,0,0,0,0,-0.3873,-0.385,-0.3829,-0.38,-0.3791,-0.3776,-0.3763,-0.3758,-0.3738,-0.373,-0.3714,-0.3694,-0.367,-0.3654,-0.363,-0.3592,-0.3586,-0.3576,-0.3572,-0.357,-0.3566,-0.3543,-0.3538,-0.3595,-0.3595,-0.3595,0,0,-0.3862,-0.3845,-0.3832,-0.3799,-0.3784,-0.3759,-0.377,-0.3744,-0.3726,-0.3726,-0.3693,-0.368,-0.3657,-0.3621,-0.3604,-0.361,-0.3549,-0.3567,-0.3565,-0.3562,-0.354,-0.3535,-0.353,-0.3593,-0.3593,-0.3593,0,0,-0.3829,-0.3815,-0.3788,-0.3773,-0.375,-0.3741,-0.3734,-0.3711,-0.3703,-0.367,-0.3669,-0.3647,-0.3605,-0.3588,-0.3574,-0.3534,-0.3534,-0.3527,-0.3509,-0.3487,-0.3483,-0.3479,-0.3463,-0.3458,-0.3523,-0.3523,-0.3523,0,-0.3818,-0.3782,-0.3775,-0.3749,-0.3734,-0.3733,-0.3705,-0.369,-0.3661,-0.365,-0.3657,-0.3604,-0.3589,-0.3548,-0.3538,-0.3527,-0.3518,-0.3529,-0.3484,-0.348,-0.3476,-0.3461,-0.3455,-0.3522,-0.3523,-0.3523,-0.3523,0,-0.3769,-0.3744,-0.3725,-0.3697,-0.368,-0.3653,-0.3641,-0.3624,-0.3621,-0.361,-0.3576,-0.3557,-0.3529,-0.3519,-0.3516,-0.3477,-0.3481,-0.3486,-0.3499,-0.347,-0.3456,-0.345,-0.3521,-0.3522,-0.3522,-0.3522,0,0,-0.3732,-0.3699,-0.3692,-0.3679,-0.3653,-0.3633,-0.3606,-0.3579,-0.3564,-0.3544,-0.352,-0.3484,-0.3488,-0.3473,-0.3467,-0.3448,-0.3416,-0.3455,-0.3455,-0.3447,-0.337,-0.3366,-0.3359,-0.3416,-0.3415,-0.3414,-0.3372,0,-0.3696,-0.3648,-0.364,-0.3597,-0.3573,-0.3572,-0.3548,-0.3529,-0.3518,-0.3495,-0.3483,-0.3458,-0.3466,-0.3456,-0.3438,-0.3424,-0.34,-0.3427,-0.3392,-0.3391,-0.3397,-0.3352,-0.3347,-0.3308,-0.3366,-0.3365,-0.3365,0,-0.3647,-0.3625,-0.358,-0.3556,-0.3546,-0.3525,-0.3498,-0.3477,-0.3455,-0.3449,-0.3431,-0.3427,-0.3398,-0.3412,-0.337,-0.3389,-0.3374,-0.3365,-0.3363,-0.3359,-0.3375,-0.3345,-0.3296,-0.329,-0.3356,-0.3357,-0.3357,0,-0.3623,-0.3582,-0.3549,-0.3538,-0.351,-0.3495,-0.3482,-0.3461,-0.3445,-0.3422,-0.3411,-0.3385,-0.337,-0.335,-0.3339,-0.3351,-0.3297,-0.3311,-0.329,-0.329,-0.3278,-0.3279,-0.3225,-0.3271,-0.3271,-0.3271,-0.3271,0,-0.3582,-0.3555,-0.3538,-0.3518,-0.3486,-0.3477,-0.3446,-0.3434,-0.3415,-0.3391,-0.3389,-0.3367,-0.3354,-0.333,-0.3321,-0.3287,-0.3281,-0.3274,-0.3272,-0.3273,-0.3274,-0.3263,-0.3265,-0.3269,-0.327,-0.327,-0.327,0,-0.355,-0.3538,-0.3502,-0.3478,-0.3471,-0.3449,-0.3428,-0.3408,-0.3397,-0.3368,-0.336,-0.3343,-0.3314,-0.3301,-0.3266,-0.326,-0.3221,-0.3221,-0.3228,-0.3227,-0.3206,-0.3208,-0.3142,-0.3132,-0.3186,-0.3185,-0.3185,0,-0.3524,-0.3503,-0.3476,-0.3461,-0.3448,-0.3423,-0.3406,-0.3396,-0.3378,-0.3351,-0.3334,-0.3305,-0.3282,-0.3236,-0.322,-0.3192,-0.3191,-0.317,-0.3187,-0.3189,-0.3189,-0.319,-0.3187,-0.3166,-0.3166,-0.3166,-0.3165,0,-0.348,-0.3475,-0.3451,-0.3425,-0.3405,-0.3384,-0.3363,-0.3351,-0.3337,-0.3317,-0.3288,-0.327,-0.3233,-0.3204,-0.3176,-0.3162,-0.3161,-0.316,-0.3153,-0.3154,-0.3159,-0.3155,-0.3219,-0.3161,-0.3162,-0.3162,-0.3162,-0.3162,-0.3449,-0.343,-0.3408,-0.3381,-0.3364,-0.3345,-0.3324,-0.3311,-0.3286,-0.3256,-0.3251,-0.322,-0.3197,-0.3158,-0.3143,-0.3118,-0.3123,-0.3114,-0.3111,-0.3109,-0.3107,-0.3164,-0.3113,-0.3113,-0.3113,-0.3113,-0.3113,0,-0.3404,-0.339,-0.3365,-0.3336,-0.3315,-0.3316,-0.3293,-0.3274,-0.3247,-0.3226,-0.3203,-0.3168,-0.314,-0.3121,-0.3092,-0.3075,-0.3074,-0.3068,-0.3068,-0.3065,-0.3105,-0.3113,-0.3069,-0.3069,-0.3069,-0.307,-0.307,-0.307,-0.3378,-0.3344,-0.3336,-0.3294,-0.3279,-0.3248,-0.3235,-0.3216,-0.3199,-0.3161,-0.3138,-0.3126,-0.3105,-0.3075,-0.3048,-0.3043,-0.3032,-0.3026,-0.3021,-0.3058,-0.3062,-0.3067,-0.3074,-0.3024,-0.3024,-0.2983,-0.2983,-0.2983]},{"header":{"parameterUnit":"m.s-1","parameterCategory":1,"la1":30.2991,"la2":30.254,"lo1":-89.0895,"lo2":-89.0444,"dy":0.0017,"dx":0.0017,"nx":28,"ny":28,"refTime":"2025-02-04T03:00:00:Z","depth":0,"parameterNumber":3,"parameterNumberName":"V-component_of_WINDS"},"data":[0,0,0,0,0,0,0,0,0,0,0,0,0,0,0,0,0,0,0,0,0,0,0,0,0,0,0,0,0,0,0,0,0,0,0,0,0,0,0,0,0,0,0,0,0,0,0,0,0,0,0,0,0,0,0,0,0,0,0.9728,0.9728,0,0.9781,0.9782,0.9782,0.9778,0.9777,0.9776,0.9776,0.9828,0.983,0.9832,0,0,0,0,0,0,0,0,0,0,0,0,0,0.962,0.9622,0.9728,0.9728,0.9729,0.9781,0.9782,0.9782,0.9778,0.9777,0.9776,0.9775,0.9827,0.983,0.9832,0,0,0,0,0,0,0,0,0,0,0,0,0,0.9669,0.9623,0.9728,0.9733,0.9734,0.9781,0.9782,0.9783,0.9778,0.9777,0.9776,0.9775,0.9826,0.9829,0.9833,0.9876,0,0,0.9842,0.9844,0,0,0,0,0,0,0,0,0.9667,0.9673,0.9732,0.9733,0.9734,0.9772,0.9763,0.9814,0.9779,0.9761,0.9776,0.9774,0.981,0.9814,0.9827,0.9879,0.9881,0.9843,0.9845,0.9846,0.9847,0,0,0,0,0,0,0,0.9663,0.9671,0.9749,0.9733,0.9734,0.9732,0.9738,0.9772,0.9792,0.9763,0.9763,0.9769,0.981,0.9824,0.9828,0.9882,0.9842,0.9845,0.9847,0.9849,0.9973,0.9974,0,0,0,0,0,0,0.9659,0.9668,0.9747,0.975,0.9697,0.9735,0.9742,0.9761,0.9791,0.9795,0.977,0.9769,0.9819,0.9824,0.983,0.9884,0.9846,0.9849,0.9851,0.9971,0.9973,0.9974,0,0,0,0,0,0,0.9656,0.9666,0.9745,0.9709,0.9719,0.9738,0.976,0.9762,0.9776,0.9797,0.98,0.9781,0.9818,0.9825,0.9865,0.9886,0.985,0.9853,0.997,0.9972,0.9974,0.9992,0,0,0,0,0,0,0.9653,0.9665,0.9682,0.971,0.9721,0.978,0.9761,0.9764,0.9782,0.9781,0.9808,0.9811,0.9818,0.986,0.9868,0.989,0.9856,0.9968,0.9971,0.9973,0.999,0.9995,0.9999,0,0,0,0,0,0.965,0.9685,0.9683,0.9693,0.9743,0.9781,0.9788,0.9796,0.9784,0.9801,0.9814,0.981,0.9882,0.9864,0.9873,0.9896,0.9967,0.997,0.9973,0.9988,0.9994,0.9999,0,0,0,0,0,0,0.9658,0.9688,0.9687,0.9732,0.9754,0.978,0.9803,0.9801,0.9827,0.9824,0.9832,0.9839,0.9879,0.9891,0.9871,0.994,0.9923,0.9928,0.9931,0.9937,0.9941,0.9938,0.9858,0,0,0,0,0,0.9666,0.9695,0.9719,0.9756,0.9768,0.9783,0.98,0.9804,0.9827,0.9836,0.9852,0.9874,0.9902,0.992,0.9946,0.9991,0.9997,1.0011,1.0016,1.0019,1.0024,1.005,1.0056,0.9985,0.9985,0.9985,0,0,0.9681,0.9701,0.9719,0.9759,0.9776,0.9806,0.9791,0.9822,0.9844,0.9841,0.988,0.9892,0.9917,0.996,0.998,0.9971,1.0045,1.0023,1.0026,1.0029,1.0053,1.006,1.0066,0.9987,0.9986,0.9986,0,0,0.9724,0.9742,0.9776,0.9794,0.9821,0.9831,0.9839,0.9866,0.9874,0.9914,0.9912,0.9937,0.9984,1.0002,1.0018,1.0068,1.0065,1.0076,1.01,1.0125,1.0131,1.0136,1.0155,1.0161,1.008,1.008,1.008,0,0.974,0.9785,0.9793,0.9826,0.9844,0.9842,0.9876,0.9893,0.9927,0.9939,0.9929,0.9989,1.0006,1.0053,1.0066,1.0078,1.0087,1.0074,1.0129,1.0134,1.0139,1.0158,1.0165,1.0082,1.0081,1.0081,1.0081,0,0.9803,0.9835,0.9858,0.9893,0.9913,0.9946,0.9959,0.9978,0.9981,0.9992,1.0032,1.0051,1.0082,1.0093,1.0095,1.0142,1.0136,1.0127,1.011,1.0147,1.0165,1.0172,1.0083,1.0083,1.0083,1.0082,0,0,0.9855,0.9893,0.9902,0.9918,0.9948,0.9972,1.0004,1.0036,1.0053,1.0076,1.0104,1.0144,1.0137,1.0154,1.0158,1.0179,1.022,1.0169,1.0169,1.0179,1.0273,1.028,1.0288,1.0217,1.0219,1.022,1.0271,0,0.9902,0.9962,0.997,1.0022,1.0052,1.0051,1.0079,1.01,1.0111,1.0137,1.0148,1.0177,1.0165,1.0176,1.0197,1.021,1.0239,1.0206,1.0244,1.0245,1.0239,1.0297,1.0305,1.0352,1.0278,1.0279,1.028,0,0.9966,0.9992,1.0048,1.0075,1.0087,1.0113,1.0143,1.0167,1.0191,1.0197,1.0217,1.0218,1.0252,1.0232,1.0279,1.0256,1.0272,1.028,1.0282,1.0288,1.0266,1.0305,1.0368,1.0375,1.029,1.0289,1.0289,0,1.0,1.0049,1.0089,1.0102,1.0134,1.0152,1.0166,1.0189,1.0207,1.0232,1.0244,1.0272,1.0288,1.031,1.0319,1.0303,1.0365,1.0346,1.0372,1.0372,1.0386,1.0385,1.0454,1.0393,1.0393,1.0393,1.0393,0,1.0053,1.0087,1.0105,1.013,1.0168,1.0177,1.0214,1.0227,1.0247,1.0274,1.0274,1.0299,1.0308,1.0335,1.0342,1.038,1.0386,1.0393,1.0394,1.0394,1.0393,1.0405,1.0403,1.0395,1.0395,1.0394,1.0394,0,1.0098,1.0111,1.0155,1.0181,1.0189,1.0216,1.0238,1.0262,1.0273,1.0307,1.0315,1.0331,1.0363,1.0373,1.041,1.0415,1.046,1.0458,1.0453,1.0453,1.0479,1.0477,1.0559,1.057,1.0501,1.0502,1.0502,0,1.0132,1.0159,1.0188,1.0207,1.0222,1.0252,1.0271,1.028,1.0299,1.0329,1.0349,1.038,1.0406,1.0455,1.047,1.0499,1.0498,1.0525,1.0503,1.0502,1.0501,1.05,1.0503,1.053,1.053,1.0531,1.0531,0,1.0192,1.0197,1.0225,1.0255,1.0279,1.0303,1.0326,1.0341,1.0353,1.0375,1.0408,1.0428,1.0466,1.0498,1.0527,1.054,1.0538,1.0538,1.0546,1.0547,1.0543,1.0547,1.0466,1.0537,1.0536,1.0536,1.0535,1.0535,1.0233,1.0257,1.0283,1.0314,1.0333,1.0354,1.0379,1.0392,1.042,1.0453,1.0456,1.0491,1.0514,1.0554,1.0568,1.0596,1.0588,1.0599,1.0602,1.0605,1.0608,1.0537,1.0601,1.06,1.06,1.06,1.06,0,1.0294,1.031,1.0339,1.0372,1.0397,1.0393,1.0419,1.044,1.0471,1.0493,1.0519,1.0556,1.0586,1.0603,1.0633,1.0652,1.0652,1.066,1.0659,1.0663,1.0612,1.0603,1.0659,1.0659,1.0659,1.0659,1.0659,1.0659,1.0329,1.037,1.0378,1.0429,1.0444,1.048,1.0495,1.0515,1.0533,1.0575,1.0601,1.0612,1.0632,1.0663,1.0691,1.0695,1.0706,1.0715,1.0719,1.0672,1.0666,1.066,1.0652,1.0717,1.0717,1.0767,1.0768,1.0768]}]]